CAPE
0 0 0 0 0 0 0 0 2 1 1 1 1 2 0 0 0 0 0 0 0 0 0 0 0 0 0 34 7 694 651 267 207 228 601 265 402 627 853 350 346 577 84 20 36
0 0 0 0 0 0 0 0 0 2 2 2 1 0 1 0 0 0 0 0 0 4 0 0 0 0 0 6 71 498 289 356 275 264 496 412 512 724 594 540 532 422 17 0 59
0 0 0 0 0 0 0 0 0 0 0 1 1 0 0 0 0 0 0 0 0 0 0 0 0 0 0 0 109 483 213 353 335 228 200 369 505 226 586 637 493 110 22 0 81
0 0 0 0 0 0 0 0 0 0 0 2 0 0 0 0 0 0 0 0 0 0 0 0 0 0 0 0 66 215 305 249 240 123 251 191 126 115 439 376 373 174 37 4 81
1 1 0 0 0 0 0 0 0 0 0 1 1 0 0 0 0 0 0 0 0 0 0 0 0 0 0 0 4 226 113 51 335 246 193 52 9 126 389 325 522 518 34 2 17
0 0 0 0 0 0 0 0 0 0 0 1 1 0 0 0 0 0 0 0 0 0 0 0 0 0 0 0 5 149 85 32 158 307 208 119 55 163 546 432 581 311 27 4 7
0 0 0 0 1 1 0 0 0 0 0 0 0 0 0 0 0 0 0 0 0 0 0 0 0 0 0 0 32 206 197 1 84 249 216 202 136 217 516 371 227 125 44 11 14
0 0 0 0 0 1 0 0 0 1 1 0 0 0 0 0 0 0 0 0 0 0 0 0 0 0 0 0 18 141 114 60 19 27 230 277 209 769 486 516 168 109 53 18 19
0 0 0 0 0 0 0 0 0 0 0 0 0 0 0 0 0 0 0 0 0 0 0 0 0 0 0 0 5 174 157 79 33 104 243 136 179 358 236 633 179 80 57 54 89
0 0 0 0 0 0 0 0 0 0 0 0 0 0 0 0 0 0 0 0 0 0 0 0 0 0 0 0 13 163 122 132 144 79 380 242 87 502 303 616 291 102 67 106 218
0 0 0 0 0 0 0 0 0 0 0 0 0 0 0 0 0 0 0 0 0 0 0 0 0 0 0 0 2 117 52 40 144 175 224 113 181 574 1063 807 894 302 109 120 163
0 0 0 0 0 0 0 0 0 0 0 0 0 0 0 0 0 0 0 0 0 0 0 0 0 0 0 0 1 93 118 80 223 365 169 110 4 247 589 632 771 963 551 290 356
3 0 2 0 0 0 0 0 0 0 0 0 0 0 0 0 0 0 0 0 0 0 0 0 0 0 0 0 0 101 98 36 22 356 92 15 84 210 283 460 863 832 700 644 389
1 3 0 0 0 0 0 0 0 0 0 0 0 0 0 0 0 0 0 0 0 0 0 0 0 0 0 3 0 11 38 40 56 6 115 11 47 167 282 913 1097 981 970 706 517
0 0 0 0 0 0 0 0 0 0 23 0 0 0 0 0 0 0 0 0 2 0 0 0 0 0 0 0 0 29 63 20 1 0 204 61 113 86 200 410 965 1108 1106 914 561
0 0 0 0 0 0 0 0 0 0 68 0 0 0 0 0 0 0 0 0 3 1 0 0 0 0 1 8 0 39 45 26 3 2 74 221 44 94 256 230 724 950 1058 998 848
0 0 0 0 0 0 0 0 0 79 5 4 0 0 0 0 0 0 0 0 4 3 0 13 4 18 0 48 4 32 33 18 2 1 19 129 125 169 161 132 147 201 378 772 1041
0 0 0 0 0 0 1 73 165 42 63 2 0 0 0 24 5 0 3 1 6 35 12 12 14 1 0 15 41 21 10 10 1 0 3 53 252 209 188 32 18 98 184 259 457
0 0 0 0 0 0 69 162 32 72 9 12 0 2 8 0 12 8 4 23 7 4 26 55 19 0 0 0 0 19 1 3 40 37 27 157 190 159 154 154 54 267 199 185 500
0 0 0 0 0 8 161 43 94 8 6 12 18 1 20 19 3 6 12 0 0 0 0 21 5 0 0 0 0 0 2 14 6 68 53 227 226 302 55 17 6 206 330 274 292
0 0 0 0 0 79 75 142 47 1 19 82 85 17 3 15 9 6 17 0 0 0 0 2 14 0 0 0 0 0 0 2 44 31 118 140 390 138 43 0 12 136 214 192 231
0 7 0 0 17 21 144 69 0 1 20 45 36 2 0 0 21 21 3 0 0 0 0 0 3 3 0 0 0 0 3 6 7 27 10 54 87 51 23 10 0 57 196 384 142
0 0 0 0 85 0 0 0 0 0 4 50 61 20 14 20 28 39 9 0 0 0 1 0 0 43 0 0 0 0 0 0 9 42 96 64 187 81 31 19 0 37 222 249 358
0 5 0 0 0 0 0 0 0 0 0 0 3 64 72 71 76 36 12 0 0 0 0 0 2 13 9 19 0 0 0 0 0 6 39 141 136 91 22 18 6 35 196 361 517
0 0 0 1 0 0 0 0 0 0 0 0 0 8 112 189 111 69 8 0 0 0 0 0 2 0 1 0 0 0 0 0 0 0 34 489 182 105 102 23 9 20 127 138 64
0 0 0 0 0 0 0 0 0 0 0 0 0 0 0 70 105 90 17 19 8 0 0 0 9 0 0 0 0 0 0 0 0 0 16 237 21 45 37 65 29 11 0 5 21
0 0 0 0 0 0 0 0 0 0 0 0 0 0 0 0 0 1 0 1 1 2 0 1 4 0 0 2 0 0 0 0 0 0 7 246 23 12 13 17 22 11 0 0 0
CIN
0 0 0 0 0 0 0 0 0 0 0 0 0 0 0 0 0 0 0 0 0 0 0 0 0 0 0 -25 -12 0 -6 -9 -5 -2 -1 -35 -11 -7 -15 -6 -20 -1 -17 -54 -56
0 0 0 0 0 0 0 0 0 0 0 0 0 0 0 0 0 0 0 0 0 -189 0 0 0 0 0 -8 -1 0 -23 0 0 -1 0 -3 0 -6 -1 -1 -7 -4 -21 0 -41
0 0 0 0 0 0 0 0 0 0 0 0 0 0 0 0 0 0 0 0 0 0 0 0 0 0 0 0 -2 -2 -39 0 -9 -14 -1 0 0 -34 -2 0 -10 -2 -67 0 -28
0 0 0 0 0 0 0 0 0 0 0 0 0 0 0 0 0 0 0 0 0 0 0 0 0 0 0 0 -1 0 -1 -1 -13 -20 -1 -1 -27 -46 -1 -4 -12 -9 -44 -21 -28
0 0 0 0 0 0 0 0 0 0 0 0 0 0 0 0 0 0 0 0 0 0 0 0 0 0 0 0 0 -3 0 -3 0 -9 -9 -36 -62 -49 -12 -19 -5 -2 -27 0 -6
0 0 0 0 0 0 0 0 0 0 0 0 0 0 0 0 0 0 0 0 0 0 0 0 0 0 0 0 0 0 -3 0 0 -3 0 -1 -18 -34 -3 -14 -1 -13 -36 0 0
0 0 0 0 0 0 0 0 0 0 0 0 0 0 0 0 0 0 0 0 0 0 0 0 0 0 0 0 -23 0 0 0 0 0 -18 -1 -3 -3 -14 -2 -10 -18 -17 -5 0
0 0 0 0 0 0 0 0 0 0 0 0 0 0 0 0 0 0 0 0 0 0 0 0 0 0 0 0 -28 -1 0 0 0 -18 -1 -15 0 -1 -11 -1 -1 -3 -3 -3 0
0 0 0 0 0 0 0 0 0 0 0 0 0 0 0 0 0 0 0 0 0 0 0 0 0 0 0 0 -37 0 0 0 -1 -2 -1 -37 0 -6 -9 0 0 -3 -4 0 0
0 0 0 0 0 0 0 0 0 0 0 0 0 0 0 0 0 0 0 0 0 0 0 0 0 0 0 0 -34 0 0 0 0 -1 0 -12 -15 -9 -30 -2 -2 0 -1 0 0
0 0 0 0 0 0 0 0 0 0 0 0 0 0 0 0 0 0 0 0 0 0 0 0 0 0 0 0 0 0 -2 -3 0 0 -8 -35 -22 -3 -3 -1 0 -2 -1 0 -1
0 0 0 0 0 0 0 0 0 0 0 0 0 0 0 0 0 0 0 0 0 0 0 0 0 0 0 0 0 -3 0 -1 -1 -9 -42 -138 -3 -21 -4 -2 0 0 -6 -4 -2
0 0 0 0 0 0 0 0 0 0 0 0 0 0 0 0 0 0 0 0 0 0 0 0 0 0 0 0 0 0 -1 -2 -3 -1 -3 -1 -14 -9 -1 -5 -1 -1 -5 -1 -9
0 0 0 0 0 0 0 0 0 0 0 0 0 0 0 0 0 0 0 0 0 0 0 0 0 0 0 0 0 0 -1 -1 0 0 -2 -11 -1 -29 0 -3 0 -3 0 -2 -11
0 0 0 0 0 0 0 0 0 0 -1 0 0 0 0 0 0 0 0 0 0 0 0 0 0 0 0 0 0 0 0 -1 0 0 0 -1 -1 -21 0 0 -4 0 0 0 -13
0 0 0 0 0 0 0 0 0 0 0 0 0 0 0 0 0 0 0 0 0 0 0 0 0 0 0 0 0 -3 -1 0 0 0 0 -1 -20 -12 -12 -1 -1 0 0 -1 -2
0 0 0 0 0 0 0 0 0 -3 -33 -1 0 0 0 0 0 0 0 0 0 0 0 0 0 0 0 0 0 0 0 0 0 0 0 -2 -6 -9 -17 -18 -57 -58 -2 -1 -1
0 0 0 0 0 0 -83 -25 0 -8 -1 -8 0 0 0 0 0 0 0 0 0 -4 -14 0 0 0 0 -1 0 0 0 0 0 0 0 0 -5 0 0 -89 -110 -95 -112 -122 -31
0 0 0 0 0 0 -44 0 0 -1 -4 -2 0 -2 -18 0 -1 0 0 0 0 -3 -4 0 0 0 0 0 0 0 0 0 0 0 0 -3 -4 0 -1 -21 -101 -58 -121 -155 -55
0 0 0 0 0 -50 -3 -17 -15 -44 -35 -18 -1 -2 -1 -1 0 -1 0 0 0 0 0 -15 -1 0 0 0 0 0 -1 0 0 0 0 -3 -2 0 -4 -42 0 -69 -89 -127 -117
0 0 0 0 0 -21 -7 -9 -32 -33 -43 -1 -1 -2 -13 -4 -1 -5 -1 0 0 0 0 0 -1 0 0 0 0 0 0 0 0 0 0 0 0 -5 -70 0 0 -99 -108 -152 -141
0 0 0 0 -3 -9 0 -14 0 -26 -40 -17 -9 0 -1 -1 -3 -1 0 0 0 0 0 0 0 0 0 0 0 0 0 0 0 0 -2 -5 -92 -41 -99 0 0 -139 -98 -72 -161
0 0 0 0 0 0 0 0 0 0 -38 -19 -9 -16 -3 0 -1 0 -22 0 0 0 0 0 0 0 0 0 0 0 0 0 0 0 -1 0 -74 -99 -104 0 0 -135 -61 -65 -63
0 -14 0 0 0 0 0 0 0 0 0 0 -29 -18 -7 -2 0 -10 -27 0 0 0 0 0 0 -1 0 -2 0 0 0 0 0 0 0 -2 -232 -160 -126 0 -50 -120 -56 -19 -19
0 0 0 -1 0 0 0 0 0 0 0 0 0 -24 -1 0 -2 -1 -25 0 0 0 0 0 0 0 0 0 0 0 0 0 0 0 0 -21 -123 -105 -81 -101 0 -20 -43 -45 -78
0 0 0 0 0 0 0 0 0 0 0 0 0 0 0 -1 -1 -2 -14 -13 -17 0 0 -1 -7 0 0 0 0 0 0 0 0 0 -3 -2 -60 -87 -114 -103 -94 0 0 0 -65
0 0 0 0 0 0 0 0 0 0 0 0 0 0 0 0 0 0 0 0 0 -31 0 -12 -12 0 0 0 0 0 0 0 0 0 0 -1 -58 0 0 -40 -85 0 0 0 0
Wind_Speed
nan nan nan nan nan nan nan nan nan nan nan nan nan nan nan nan nan nan nan nan nan nan nan nan nan nan nan nan nan 16 9 10 8 3 15 13 21 20 23 8 10 7 nan nan nan
nan nan nan nan nan nan nan nan nan nan nan nan nan nan nan nan nan nan nan nan nan nan nan nan nan nan nan nan nan 14 6 14 11 6 15 13 12 17 13 8 4 3 nan nan nan
nan nan nan nan nan nan nan nan nan nan nan nan nan nan nan nan nan nan nan nan nan nan nan nan nan nan nan nan 9 15 8 17 17 11 12 14 13 23 12 13 9 12 nan nan nan
nan nan nan nan nan nan nan nan nan nan nan nan nan nan nan nan nan nan nan nan nan nan nan nan nan nan nan nan nan 14 7 16 17 14 18 15 18 27 19 18 5 7 nan nan nan
nan nan nan nan nan nan nan nan nan nan nan nan nan nan nan nan nan nan nan nan nan nan nan nan nan nan nan nan nan 3 11 nan 16 12 10 nan nan 25 28 17 9 7 nan nan nan
nan nan nan nan nan nan nan nan nan nan nan nan nan nan nan nan nan nan nan nan nan nan nan nan nan nan nan nan nan 7 nan nan 10 12 12 8 nan 22 23 19 8 8 nan nan nan
nan nan nan nan nan nan nan nan nan nan nan nan nan nan nan nan nan nan nan nan nan nan nan nan nan nan nan nan nan 11 4 nan nan 12 10 7 4 14 19 15 6 7 nan nan nan
nan nan nan nan nan nan nan nan nan nan nan nan nan nan nan nan nan nan nan nan nan nan nan nan nan nan nan nan nan 4 7 nan nan nan 8 6 10 13 14 16 7 4 nan nan nan
nan nan nan nan nan nan nan nan nan nan nan nan nan nan nan nan nan nan nan nan nan nan nan nan nan nan nan nan nan 3 2 nan nan 12 6 17 16 22 18 21 10 nan nan nan nan
nan nan nan nan nan nan nan nan nan nan nan nan nan nan nan nan nan nan nan nan nan nan nan nan nan nan nan nan nan 3 16 8 21 nan 11 17 nan 16 8 15 12 4 nan 1 2
nan nan nan nan nan nan nan nan nan nan nan nan nan nan nan nan nan nan nan nan nan nan nan nan nan nan nan nan nan 4 nan nan 25 18 19 13 17 11 5 3 4 9 6 2 3
nan nan nan nan nan nan nan nan nan nan nan nan nan nan nan nan nan nan nan nan nan nan nan nan nan nan nan nan nan nan 7 nan 25 10 24 11 nan 22 14 11 9 7 6 6 10
nan nan nan nan nan nan nan nan nan nan nan nan nan nan nan nan nan nan nan nan nan nan nan nan nan nan nan nan nan 25 nan nan nan 16 nan nan nan 11 14 8 19 14 9 7 6
nan nan nan nan nan nan nan nan nan nan nan nan nan nan nan nan nan nan nan nan nan nan nan nan nan nan nan nan nan nan nan nan nan nan 17 nan nan 4 28 29 21 11 14 9 7
nan nan nan nan nan nan nan nan nan nan nan nan nan nan nan nan nan nan nan nan nan nan nan nan nan nan nan nan nan nan nan nan nan nan 29 nan 24 nan 27 28 20 11 11 8 7
nan nan nan nan nan nan nan nan nan nan nan nan nan nan nan nan nan nan nan nan nan nan nan nan nan nan nan nan nan nan nan nan nan nan nan 38 nan nan 22 35 34 17 10 11 4
nan nan nan nan nan nan nan nan nan nan nan nan nan nan nan nan nan nan nan nan nan nan nan nan nan nan nan nan nan nan nan nan nan nan nan 26 29 26 28 45 46 34 32 20 7
nan nan nan nan nan nan nan nan 4 nan nan nan nan nan nan nan nan nan nan nan nan nan nan nan nan nan nan nan nan nan nan nan nan nan nan nan 35 42 45 nan nan nan 35 31 21
nan nan nan nan nan nan nan 18 nan nan nan nan nan nan nan nan nan nan nan nan nan nan nan nan nan nan nan nan nan nan nan nan nan nan nan 35 54 49 45 43 nan 35 34 32 27
nan nan nan nan nan nan 16 nan nan nan nan nan nan nan nan nan nan nan nan nan nan nan nan nan nan nan nan nan nan nan nan nan nan nan nan 39 41 44 nan nan nan 42 37 36 36
nan nan nan nan nan nan nan 16 nan nan nan nan nan nan nan nan nan nan nan nan nan nan nan nan nan nan nan nan nan nan nan nan nan nan 19 22 37 57 nan nan nan 44 42 43 43
nan nan nan nan nan nan 9 nan nan nan nan nan nan nan nan nan nan nan nan nan nan nan nan nan nan nan nan nan nan nan nan nan nan nan nan nan nan nan nan nan nan nan 45 45 45
nan nan nan nan nan nan nan nan nan nan nan nan nan nan nan nan nan nan nan nan nan nan nan nan nan nan nan nan nan nan nan nan nan nan nan nan 40 nan nan nan nan nan 48 49 48
nan nan nan nan nan nan nan nan nan nan nan nan nan nan nan nan nan nan nan nan nan nan nan nan nan nan nan nan nan nan nan nan nan nan nan 26 46 nan nan nan nan nan 46 46 49
nan nan nan nan nan nan nan nan nan nan nan nan nan nan 15 12 15 nan nan nan nan nan nan nan nan nan nan nan nan nan nan nan nan nan nan 48 44 42 43 nan nan nan 42 46 nan
nan nan nan nan nan nan nan nan nan nan nan nan nan nan nan nan 25 nan nan nan nan nan nan nan nan nan nan nan nan nan nan nan nan nan nan 63 nan nan nan nan nan nan nan nan nan
nan nan nan nan nan nan nan nan nan nan nan nan nan nan nan nan nan nan nan nan nan nan nan nan nan nan nan nan nan nan nan nan nan nan nan 51 nan nan nan nan nan nan nan nan nan
Wind_Direction
nan nan nan nan nan nan nan nan nan nan nan nan nan nan nan nan nan nan nan nan nan nan nan nan nan nan nan nan nan 109 155 129 256 282 315 301 229 185 153 209 157 178 nan nan nan
nan nan nan nan nan nan nan nan nan nan nan nan nan nan nan nan nan nan nan nan nan nan nan nan nan nan nan nan nan 126 246 195 209 308 335 326 249 209 161 203 188 126 nan nan nan
nan nan nan nan nan nan nan nan nan nan nan nan nan nan nan nan nan nan nan nan nan nan nan nan nan nan nan nan 141 151 188 244 239 292 325 306 262 186 188 191 208 268 nan nan nan
nan nan nan nan nan nan nan nan nan nan nan nan nan nan nan nan nan nan nan nan nan nan nan nan nan nan nan nan nan 159 218 253 282 272 288 278 245 202 190 184 179 265 nan nan nan
nan nan nan nan nan nan nan nan nan nan nan nan nan nan nan nan nan nan nan nan nan nan nan nan nan nan nan nan nan 158 239 nan 281 321 291 nan nan 222 191 181 139 306 nan nan nan
nan nan nan nan nan nan nan nan nan nan nan nan nan nan nan nan nan nan nan nan nan nan nan nan nan nan nan nan nan 218 nan nan 310 294 296 314 nan 232 190 184 173 286 nan nan nan
nan nan nan nan nan nan nan nan nan nan nan nan nan nan nan nan nan nan nan nan nan nan nan nan nan nan nan nan nan 208 241 nan nan 287 315 314 309 217 198 162 220 289 nan nan nan
nan nan nan nan nan nan nan nan nan nan nan nan nan nan nan nan nan nan nan nan nan nan nan nan nan nan nan nan nan 140 107 nan nan nan 279 300 285 245 227 161 215 273 nan nan nan
nan nan nan nan nan nan nan nan nan nan nan nan nan nan nan nan nan nan nan nan nan nan nan nan nan nan nan nan nan 162 5 nan nan 282 264 230 244 241 208 165 189 nan nan nan nan
nan nan nan nan nan nan nan nan nan nan nan nan nan nan nan nan nan nan nan nan nan nan nan nan nan nan nan nan nan 284 105 295 270 nan 237 252 nan 271 261 202 161 174 nan 44 254
nan nan nan nan nan nan nan nan nan nan nan nan nan nan nan nan nan nan nan nan nan nan nan nan nan nan nan nan nan 147 nan nan 262 262 254 230 262 219 37 227 128 187 171 139 250
nan nan nan nan nan nan nan nan nan nan nan nan nan nan nan nan nan nan nan nan nan nan nan nan nan nan nan nan nan nan 190 nan 240 257 253 311 nan 221 227 228 193 261 224 186 180
nan nan nan nan nan nan nan nan nan nan nan nan nan nan nan nan nan nan nan nan nan nan nan nan nan nan nan nan nan 153 nan nan nan 231 nan nan nan 307 259 192 243 220 261 247 177
nan nan nan nan nan nan nan nan nan nan nan nan nan nan nan nan nan nan nan nan nan nan nan nan nan nan nan nan nan nan nan nan nan nan 250 nan nan 103 261 223 208 234 250 228 229
nan nan nan nan nan nan nan nan nan nan nan nan nan nan nan nan nan nan nan nan nan nan nan nan nan nan nan nan nan nan nan nan nan nan 264 nan 235 nan 254 253 228 249 253 235 240
nan nan nan nan nan nan nan nan nan nan nan nan nan nan nan nan nan nan nan nan nan nan nan nan nan nan nan nan nan nan nan nan nan nan nan 279 nan nan 207 209 249 256 243 258 253
nan nan nan nan nan nan nan nan nan nan nan nan nan nan nan nan nan nan nan nan nan nan nan nan nan nan nan nan nan nan nan nan nan nan nan 298 292 239 233 226 212 212 197 210 213
nan nan nan nan nan nan nan nan 45 nan nan nan nan nan nan nan nan nan nan nan nan nan nan nan nan nan nan nan nan nan nan nan nan nan nan nan 251 251 254 nan nan nan 204 207 205
nan nan nan nan nan nan nan 52 nan nan nan nan nan nan nan nan nan nan nan nan nan nan nan nan nan nan nan nan nan nan nan nan nan nan nan 234 236 246 249 249 nan 219 218 218 210
nan nan nan nan nan nan 53 nan nan nan nan nan nan nan nan nan nan nan nan nan nan nan nan nan nan nan nan nan nan nan nan nan nan nan nan 255 271 269 nan nan nan 222 218 219 222
nan nan nan nan nan nan nan 261 nan nan nan nan nan nan nan nan nan nan nan nan nan nan nan nan nan nan nan nan nan nan nan nan nan nan 188 247 249 256 nan nan nan 231 225 222 224
nan nan nan nan nan nan 259 nan nan nan nan nan nan nan nan nan nan nan nan nan nan nan nan nan nan nan nan nan nan nan nan nan nan nan nan nan nan nan nan nan nan nan 229 227 229
nan nan nan nan nan nan nan nan nan nan nan nan nan nan nan nan nan nan nan nan nan nan nan nan nan nan nan nan nan nan nan nan nan nan nan nan 251 nan nan nan nan nan 233 232 233
nan nan nan nan nan nan nan nan nan nan nan nan nan nan nan nan nan nan nan nan nan nan nan nan nan nan nan nan nan nan nan nan nan nan nan 196 262 nan nan nan nan nan 229 232 234
nan nan nan nan nan nan nan nan nan nan nan nan nan nan 212 232 247 nan nan nan nan nan nan nan nan nan nan nan nan nan nan nan nan nan nan 256 249 257 260 nan nan nan 234 231 nan
nan nan nan nan nan nan nan nan nan nan nan nan nan nan nan nan 225 nan nan nan nan nan nan nan nan nan nan nan nan nan nan nan nan nan nan 235 nan nan nan nan nan nan nan nan nan
nan nan nan nan nan nan nan nan nan nan nan nan nan nan nan nan nan nan nan nan nan nan nan nan nan nan nan nan nan nan nan nan nan nan nan 245 nan nan nan nan nan nan nan nan nan